K5KTF-WX Weather Reports


time (UTC)temp
C
wind
direction
speed
KPH
gust
KPH
rain 1hr
cm
rain 24hr
cm
rain mn
cm
humidity
%
barometer
mb
20211025034533 22 154 0.0 4.8 0.00 0.00 0.00 85 1012.1
20211025033040 22 168 0.0 3.2 0.00 0.00 0.00 85 1012.0
20211025031600 22 0 0.0 3.2 0.00 0.00 0.00 84 1012.0
20211025030050 22 220 0.0 3.2 0.00 0.00 0.00 84 1011.8
20211025024615 22 215 0.0 6.4 0.00 0.00 0.00 84 1011.7
20211025023127 22 0 0.0 1.6 0.00 0.00 0.00 85 1011.5
20211025021552 22 174 0.0 1.6 0.00 0.00 0.00 85 1011.4
20211025020049 22 0 0.0 1.6 0.00 0.00 0.00 85 1011.2
20211025014544 22 0 0.0 1.6 0.00 0.00 0.00 83 1011.1
20211025013036 23 0 0.0 3.2 0.00 0.00 0.00 82 1010.9
20211025011555 23 139 0.0 3.2 0.00 0.00 0.00 81 1010.8
20211025010038 23 157 0.0 4.8 0.00 0.00 0.00 80 1010.5
20211025004600 23 0 1.6 6.4 0.00 0.00 0.00 80 1010.5
20211025003036 24 179 0.0 4.8 0.00 0.00 0.00 79 1010.6
20211025001623 25 144 0.0 1.6 0.00 0.00 0.00 77 1010.7
20211025000035 25 0 0.0 1.6 0.00 0.00 0.00 76 1010.7
20211024234538 25 0 0.0 4.8 0.00 0.00 0.00 74 1010.3
20211024233034 26 0 0.0 3.2 0.00 0.00 0.00 71 1009.9
20211024231546 27 192 0.0 4.8 0.00 0.00 0.00 68 1009.9
20211024230037 28 0 1.6 8.0 0.00 0.00 0.00 66 1009.8
20211024224534 28 101 1.6 8.0 0.00 0.00 0.00 65 1009.9
20211024223051 28 152 1.6 9.7 0.00 0.00 0.00 67 1009.8
20211024221529 28 142 1.6 14.5 0.00 0.00 0.00 66 1009.8
20211024220048 29 225 3.2 11.3 0.00 0.00 0.00 64 1009.9
20211024214544 28 225 1.6 12.9 0.00 0.00 0.00 67 1009.9
20211024213107 28 171 1.6 9.7 0.00 0.00 0.00 68 1009.9
20211024211615 27 94 3.2 14.5 0.00 0.00 0.00 68 1009.8
20211024210033 28 175 3.2 14.5 0.00 0.00 0.00 65 1009.7
20211024204557 28 140 4.8 17.7 0.00 0.00 0.00 65 1009.4
20211024203103 28 280 3.2 12.9 0.00 0.00 0.00 66 1009.7
20211024201542 28 167 4.8 16.1 0.00 0.00 0.00 63 1009.7
20211024200055 29 209 4.8 12.9 0.00 0.00 0.00 64 1009.9
20211024194554 28 188 6.4 17.7 0.00 0.00 0.00 65 1009.8
20211024193042 28 185 3.2 16.1 0.00 0.00 0.00 68 1009.8
20211024191545 27 264 3.2 16.1 0.00 0.00 0.00 69 1010.0
20211024190105 27 193 4.8 14.5 0.00 0.00 0.00 71 1010.2
20211024184544 27 201 4.8 11.3 0.00 0.00 0.00 69 1010.6
20211024183032 27 157 1.6 16.1 0.00 0.00 0.00 73 1011.0
20211024181602 27 269 3.2 12.9 0.00 0.00 0.00 72 1011.5
20211024180042 26 229 3.2 14.5 0.00 0.00 0.00 74 1011.5
20211024174701 27 230 4.8 12.9 0.00 0.00 0.00 73 1011.6
20211024173115 26 240 4.8 14.5 0.00 0.00 0.00 76 1011.8
20211024171618 25 224 1.6 12.9 0.00 0.00 0.00 78 1012.2
20211024170034 25 236 1.6 6.4 0.00 0.00 0.00 81 1012.7
20211024164535 24 230 3.2 9.7 0.00 0.00 0.00 82 1013.0
20211024163030 24 197 4.8 14.5 0.00 0.00 0.00 83 1012.9
20211024161536 24 303 3.2 9.7 0.00 0.00 0.00 84 1012.5
20211024160052 23 199 1.6 11.3 0.00 0.00 0.00 86 1012.3
20211024154540 23 248 1.6 8.0 0.00 0.00 0.00 89 1012.3
20211024153104 22 145 1.6 6.4 0.00 0.00 0.00 91 1012.5
20211024151539 22 141 3.2 12.9 0.00 0.00 0.00 92 1012.7
20211024150058 21 119 3.2 8.0 0.00 0.00 0.00 93 1012.7
20211024144546 21 244 1.6 6.4 0.00 0.00 0.00 94 1012.4
20211024143103 21 105 0.0 4.8 0.00 0.00 0.00 95 1012.2
20211024141601 21 157 1.6 4.8 0.00 0.00 0.00 96 1011.9
20211024140135 21 215 1.6 6.4 0.00 0.00 0.00 96 1011.7
20211024134540 20 0 0.0 6.4 0.00 0.00 0.00 97 1011.5
20211024133057 20 236 1.6 6.4 0.00 0.00 0.00 97 1011.3
20211024131557 20 251 1.6 8.0 0.00 0.00 0.00 97 1011.0
20211024130030 20 151 0.0 8.0 0.00 0.00 0.00 97 1010.7
20211024124528 20 158 1.6 8.0 0.00 0.00 0.00 97 1010.8
20211024123044 20 130 0.0 4.8 0.00 0.00 0.00 97 1010.6
20211024121530 20 245 0.0 6.4 0.00 0.00 0.00 97 1010.7
20211024120038 20 0 0.0 4.8 0.00 0.00 0.00 97 1010.8
20211024114616 20 113 1.6 4.8 0.00 0.00 0.00 97 1010.6
20211024113052 20 189 0.0 6.4 0.00 0.00 0.00 96 1010.5
20211024111531 20 121 1.6 11.3 0.00 0.00 0.00 96 1010.4
20211024110043 20 163 1.6 6.4 0.00 0.00 0.00 96 1010.4
20211024104633 20 209 1.6 8.0 0.00 0.00 0.00 94 1010.3
20211024103054 21 136 3.2 11.3 0.00 0.00 0.00 94 1010.3
20211024101543 20 51 3.2 16.1 0.00 0.00 0.00 94 1010.3
20211024100100 20 218 0.0 16.1 0.00 0.00 0.00 93 1010.2
20211024094551 20 193 1.6 12.9 0.00 0.00 0.00 93 1010.1
20211024093043 20 198 1.6 12.9 0.00 0.00 0.00 93 1010.1
20211024091559 20 217 3.2 11.3 0.00 0.00 0.00 93 1010.1
20211024090041 20 199 3.2 11.3 0.00 0.00 0.00 93 1010.4
20211024084559 20 148 3.2 11.3 0.00 0.00 0.00 93 1010.5
20211024083113 20 201 1.6 9.7 0.00 0.00 0.00 93 1010.7
20211024081622 20 87 3.2 9.7 0.00 0.00 0.00 92 1010.9
20211024080102 20 203 1.6 11.3 0.00 0.00 0.00 92 1011.1
20211024074547 20 250 1.6 17.7 0.00 0.00 0.00 92 1011.3
20211024073114 20 122 3.2 12.9 0.00 0.00 0.00 92 1011.5
20211024071615 20 90 3.2 17.7 0.00 0.00 0.00 92 1011.5
20211024070106 20 177 4.8 14.5 0.00 0.00 0.00 92 1011.5
20211024064551 20 182 3.2 12.9 0.00 0.00 0.00 92 1011.4
20211024063116 19 140 1.6 11.3 0.00 0.00 0.00 92 1011.4
20211024061541 19 213 3.2 12.9 0.00 0.00 0.00 92 1011.5
20211024060111 19 117 3.2 14.5 0.00 0.00 0.00 91 1011.4
20211024054547 19 55 3.2 14.5 0.00 0.00 0.00 91 1011.3
20211024053034 20 210 3.2 11.3 0.00 0.00 0.00 90 1011.3
20211024051537 20 181 3.2 11.3 0.00 0.00 0.00 89 1011.5
20211024050103 20 96 3.2 11.3 0.00 0.00 0.00 88 1011.4
20211024044529 20 238 3.2 14.5 0.00 0.00 0.00 88 1011.6
20211024043118 20 0 3.2 11.3 0.00 0.00 0.00 87 1011.6
20211024041610 20 128 3.2 11.3 0.00 0.00 0.00 86 1011.5
20211024040031 20 184 3.2 14.5 0.00 0.00 0.00 86 1011.4